Welcome to the New NWS' Forecast!
Most changes are behind the scenes, but click here for differences you might notice.

Terminal Aerodrome Forecast (TAF)

Issued by National Weather Service (NWS)

                            
930 
FTUS42 KMFL 141447 AAB
TAFMIA
TAF AMD
KMIA 141447Z 1415/1518 11012KT P6SM VCTS SCT025CB SCT040 BKN250
     FM141700 12010KT P6SM VCTS SCT030CB SCT050 BKN250
     FM142000 11010KT P6SM SCT025 BKN250
     FM150100 10006KT P6SM FEW050 SCT250
     FM151400 11010KT P6SM SCT035 SCT250=